Location: *
(32.8667°N, 13.1833°E)
Time: 08:11:27
(UTC+00:00)

Cosmos 2237 Rocket - Pass Details

Date: 18 July 2019
Orbit: 835 x 850 km, 71.0° (Epoch: 18 August)

Event Time Altitude Azimuth Distance (km) Brightness Sun altitude
Exits shadow 22:49:37 32° 323° (NW) 1,392 3.6 -35.9°
Drops below altitude 10° 22:53:32 10° 2° (N) 2,450 5.4 -36.0°
Sets 22:56:11 0° 11° (NNE) 3,388 6.3 -36.0°
